Content
SEND FEEDBACK

Daily
Averages
Monthly
Summary
United States of America

GORMAN, TEXAS


Home > North America > United States > Texas
Elevation: 1400 feet     Latitude: 32 13N     Longitude: 098 40W

WEATHER
 
SELECT A DAY
Number of Records: 230,409;   Date Range: 10/5/04 - 8/12/14
 
SHARE

PRINT THIS DATA

[ ← Previous Day ]
WEATHER ALMANAC - JANUARY 22, 2013
[ Next Day → ]
[ °C ]   °F
Weather ElementAverageHighLow
Temperature51.1 °F69.8 °F (3:15 pm)35.6 °F (7:35 am)
Dewpoint36 °F44.6 °F (5:55 pm)26.6 °F (3:15 am)
Humidity58.5 %76 % (10:15 pm)35 % (3:15 pm)
Barometer30.23 in30.30 in (9:15 am)30.15 in (5:55 pm)
Wind Speed5.9 mph13.8 mph (12:55 pm)
Wind Gust20.7 mph (1:35 pm)
Weather ElementAverage
Visibility10 mi
Wind DirectionSSE (170.8 °)

Weather ElementTotal
Precipitation---
Heating Degree Days12.3 (Base 65)
Growing Degree Days2.7 (Base 50)
Averaged from 71 records on January 22, 2013
WEATHER CONDITIONS BREAKOUT
WIND DIRECTION BREAKOUT
WEATHER BY HOUR - JANUARY 22, 2013
[ °C ]   °F
Local TimeTemperatureDewpointHumidityBarometerVisibilityWind DirectionWind SpeedGust SpeedPrecipitationEventsConditions
12:35 AM37.4 °F28.4 °F70 %30.25 in10.0 miNW (310°)5.8 mphClear
12:55 AM37.4 °F28.4 °F70 %30.25 in10.0 miNW (320°)6.9 mphMostly Cloudy
1:15 AM39.2 °F28.4 °F65 %30.26 in10.0 miNW (320°)6.9 mphOvercast
1:35 AM37.4 °F28.4 °F70 %30.26 in10.0 miNNW (330°)5.8 mphOvercast
1:55 AM37.4 °F28.4 °F70 %30.26 in10.0 miNW (320°)6.9 mphOvercast
2:15 AM37.4 °F28.4 °F70 %30.26 in10.0 miNNW (330°)5.8 mphOvercast
2:35 AM37.4 °F28.4 °F70 %30.26 in10.0 miNW (320°)5.8 mphOvercast
2:55 AM39.2 °F28.4 °F65 %30.26 in10.0 miNW (320°)4.6 mphOvercast
3:15 AM37.4 °F26.6 °F65 %30.26 in10.0 miCalmMostly Cloudy
3:35 AM37.4 °F26.6 °F65 %30.25 in10.0 miCalmScattered Clouds
3:55 AM37.4 °F26.6 °F65 %30.25 in10.0 miCalmClear
4:15 AM37.4 °F28.4 °F70 %30.25 in10.0 miCalmMostly Cloudy
4:35 AM37.4 °F28.4 °F70 %30.25 in10.0 miCalmOvercast
4:55 AM37.4 °F28.4 °F70 %30.25 in10.0 miCalmOvercast
5:15 AM37.4 °F28.4 °F70 %30.25 in10.0 miWNW (290°)3.5 mphOvercast
5:35 AM37.4 °F28.4 °F70 %30.26 in10.0 miNW (320°)4.6 mphOvercast
5:55 AM37.4 °F28.4 °F70 %30.26 in10.0 miNW (320°)3.5 mphOvercast
6:15 AM37.4 °F26.6 °F65 %30.26 in10.0 miCalmOvercast
6:35 AM37.4 °F28.4 °F70 %30.27 in10.0 miCalmOvercast
6:55 AM37.4 °F26.6 °F65 %30.27 in10.0 miCalmMostly Cloudy
7:15 AM37.4 °F28.4 °F70 %30.28 in10.0 miCalmClear
7:35 AM35.6 °F28.4 °F75 %30.29 in10.0 miNNW (330°)4.6 mphScattered Clouds
7:55 AM35.6 °F28.4 °F75 %30.29 in10.0 miNNW (330°)3.5 mphOvercast
8:15 AM37.4 °F30.2 °F75 %30.29 in10.0 miCalmOvercast
8:35 AM37.4 °F28.4 °F70 %30.29 in10.0 miCalmScattered Clouds
8:55 AM39.2 °F28.4 °F65 %30.29 in10.0 miCalmClear
9:15 AM41.0 °F28.4 °F61 %30.30 in10.0 miCalmClear
9:35 AM42.8 °F28.4 °F57 %30.30 in10.0 miCalmClear
9:55 AM46.4 °F30.2 °F53 %30.30 in10.0 miCalmClear
10:15 AM46.4 °F30.2 °F53 %30.30 in10.0 miSE (140°)4.6 mphClear
10:35 AM50.0 °F32.0 °F50 %30.30 in10.0 miSE (140°)5.8 mphClear
10:55 AM51.8 °F32.0 °F47 %30.29 in10.0 miSSE (160°)4.6 mphClear
11:15 AM53.6 °F35.6 °F51 %30.29 in10.0 miSouth (180°)5.8 mphClear
11:35 AM55.4 °F35.6 °F47 %30.28 in10.0 miSouth (170°)4.6 mphClear
11:55 AM59.0 °F35.6 °F42 %30.27 in10.0 miSouth (170°)6.9 mphClear
12:15 PM60.8 °F37.4 °F42 %30.26 in10.0 miSouth (170°)8.1 mphScattered Clouds
12:35 PM64.4 °F41.0 °F42 %30.24 in10.0 miSouth (180°)9.2 mphMostly Cloudy
12:55 PM64.4 °F41.0 °F42 %30.22 in10.0 miSSW (200°)13.8 mph19.6 mphMostly Cloudy
1:15 PM64.4 °F41.0 °F42 %30.21 in10.0 miSSW (210°)12.7 mph18.4 mphScattered Clouds
1:35 PM66.2 °F41.0 °F40 %30.20 in10.0 miSSW (210°)11.5 mph20.7 mphScattered Clouds
1:55 PM68.0 °F41.0 °F37 %30.19 in10.0 miSW (230°)13.8 mph19.6 mphScattered Clouds
2:15 PM68.0 °F41.0 °F37 %30.19 in10.0 miSSW (200°)12.7 mphClear
2:35 PM68.0 °F41.0 °F37 %30.18 in10.0 miWSW (240°)13.8 mph19.6 mphClear
2:55 PM68.0 °F41.0 °F37 %30.17 in10.0 miSSW (200°)13.8 mphClear
3:15 PM69.8 °F41.0 °F35 %30.17 in10.0 miSSW (200°)12.7 mph16.1 mphClear
3:35 PM69.8 °F42.8 °F38 %30.17 in10.0 miSW (230°)9.2 mphClear
3:55 PM69.8 °F42.8 °F38 %30.16 in10.0 miSW (220°)10.4 mphClear
4:15 PM69.8 °F42.8 °F38 %30.17 in10.0 miSouth (190°)9.2 mphClear
4:35 PM69.8 °F42.8 °F38 %30.16 in10.0 miSouth (190°)8.1 mphClear
4:55 PM69.8 °F42.8 °F38 %30.16 in10.0 miSouth (180°)9.2 mphClear
5:15 PM69.8 °F42.8 °F38 %30.16 in10.0 miSouth (190°)8.1 mphScattered Clouds
5:35 PM68.0 °F42.8 °F40 %30.16 in10.0 miSouth (190°)9.2 mphClear
5:55 PM64.4 °F44.6 °F49 %30.15 in10.0 miSouth (170°)8.1 mphClear
6:15 PM62.6 °F44.6 °F52 %30.16 in10.0 miSouth (180°)5.8 mphClear
6:35 PM60.8 °F42.8 °F52 %30.15 in10.0 miSouth (180°)5.8 mphClear
6:55 PM59.0 °F42.8 °F55 %30.16 in10.0 miSouth (180°)4.6 mphClear
7:15 PM59.0 °F42.8 °F55 %30.16 in10.0 miSouth (180°)4.6 mphClear
7:35 PM57.2 °F42.8 °F59 %30.17 in10.0 miSouth (180°)5.8 mphClear
7:55 PM57.2 °F42.8 °F59 %30.17 in10.0 miSouth (180°)4.6 mphClear
8:15 PM55.4 °F42.8 °F63 %30.18 in10.0 miSouth (180°)5.8 mphClear
8:35 PM53.6 °F42.8 °F67 %30.19 in10.0 miSouth (190°)5.8 mphClear
8:55 PM53.6 °F42.8 °F67 %30.19 in10.0 miSouth (190°)5.8 mphClear
9:15 PM53.6 °F44.6 °F72 %30.20 in10.0 miSouth (190°)5.8 mphClear
9:35 PM53.6 °F44.6 °F72 %30.20 in10.0 miSouth (190°)6.9 mphScattered Clouds
9:55 PM53.6 °F44.6 °F72 %30.20 in10.0 miSouth (190°)9.2 mphScattered Clouds
10:15 PM51.8 °F44.6 °F76 %30.21 in10.0 miSSW (200°)8.1 mphScattered Clouds
10:35 PM53.6 °F44.6 °F72 %30.21 in10.0 miSSW (200°)9.2 mphClear
10:55 PM53.6 °F44.6 °F72 %30.21 in10.0 miSSW (200°)10.4 mphClear
11:15 PM53.6 °F44.6 °F72 %30.21 in10.0 miSSW (200°)9.2 mphClear
11:35 PM51.8 °F44.6 °F76 %30.21 in10.0 miSSW (200°)8.1 mphClear
11:55 PM51.8 °F44.6 °F76 %30.21 in10.0 miSSW (200°)8.1 mphClear
Hourly data recorded from KMKN, located miles away from Gorman, Texas







STORIES FROM OUR PARTNERS